Weather History for Mount Pleasant, TX

Change the Weather History Date:

Thursday, July 4, 2013

  Actual Average (KGGG) Record (KGGG)
Temperature  
Mean Temperature 76 °F 83 °F  
Max Temperature 90 °F 93 °F 105 °F (1933)
Min Temperature 62 °F 73 °F 61 °F (1924)
Degree Days  
Heating Degree Days 0 0  
Month to date heating degree days 0  
Since 1 June heating degree days 0  
Since 1 July heating degree days 0  
Cooling Degree Days 11 18  
Month to date cooling degree days 71  
Year to date cooling degree days 889  
Since 1 June cooling degree days 510  
Growing Degree Days 26 (Base 50)    
Moisture  
Dew Point 59 °F    
Average Humidity 58    
Maximum Humidity 88    
Minimum Humidity 27    
Precipitation  
Precipitation 0.00 in 0.12 in 1.35 in (1905)
Month to date precipitation 0.49  
Year to date precipitation 25.23  
Snow  
Snow 0.00 in - - ()
Month to date snowfall  
Since 1 June snowfall  
Since 1 July snowfall  
Snow Depth -    
Sea Level Pressure  
Sea Level Pressure 30.01 in    
Wind  
Wind Speed 1 mph (East)    
Max Wind Speed 9 mph    
Max Gust Speed -    
Visibility 10 miles    
Events      
T = Trace of Precipitation, MM = Missing Value Source: NWS Daily Summary

Daily Weather History Graph

Daily Weather History Graph

Search for Another Location

Airport:

Trip Planner

Search our weather history database for the weather conditions in past years. The results will help you decide how hot, cold, wet, or windy it might be!

Date:

Astronomy

Jul. 04, 2013 Rise Set
Actual Time 6:16 AM CDT 8:32 PM CDT
Civil Twilight 5:47 AM CDT 9:00 PM CDT
Nautical Twilight 5:12 AM CDT 9:35 PM CDT
Astronomical Twilight 4:34 AM CDT 10:13 PM CDT
Moon 3:29 AM CDT (7/4) 5:40 PM CDT (7/4)
Length of Visible Light 15h 13m
Length of Day
14h 16m
Waning Crescent, 11% of the Moon is Illuminated
Jul 4
Waning Crescent
Jul 8
New
Jul 15
First Quarter
Jul 22
Full
Jul 29
Last Quarter

Hourly Weather History & Observations

Time (CDT) Temp. Heat Index Dew Point Humidity Pressure Visibility Wind Dir Wind Speed Gust Speed Precip Events Conditions
12:15 AM 71.4 °F - 56.1 °F 58% 30.03 in 10.0 mi Calm Calm - N/A   Unknown
12:35 AM 70.3 °F - 57.4 °F 63% 30.02 in 10.0 mi Calm Calm - N/A   Unknown
12:55 AM 70.7 °F - 57.2 °F 62% 30.02 in 10.0 mi Calm Calm - N/A   Unknown
1:15 AM 69.4 °F - 56.8 °F 64% 30.03 in 10.0 mi Calm Calm - N/A   Unknown
1:35 AM 68.4 °F - 56.8 °F 67% 30.02 in 10.0 mi Calm Calm - N/A   Unknown
1:55 AM 67.1 °F - 57.4 °F 71% 30.02 in 10.0 mi Calm Calm - N/A   Unknown
2:15 AM 67.6 °F - 57.4 °F 70% 30.02 in 10.0 mi Calm Calm - N/A   Unknown
2:35 AM 68.7 °F - 58.1 °F 69% 30.02 in 10.0 mi Calm Calm - N/A   Unknown
2:55 AM 69.4 °F - 57.4 °F 65% 30.02 in 10.0 mi Calm Calm - N/A   Unknown
3:15 AM 68.5 °F - 57.6 °F 68% 30.02 in 10.0 mi Calm Calm - N/A   Unknown
3:35 AM 68.9 °F - 58.1 °F 68% 30.02 in 10.0 mi Calm Calm - N/A   Unknown
3:55 AM 66.6 °F - 58.3 °F 75% 30.02 in 10.0 mi Calm Calm - N/A   Unknown
4:15 AM 65.3 °F - 58.3 °F 78% 30.02 in 10.0 mi Calm Calm - N/A   Unknown
4:35 AM 66.0 °F - 59.0 °F 78% 30.02 in 10.0 mi Calm Calm - N/A   Unknown
4:55 AM 65.3 °F - 59.9 °F 83% 30.02 in 10.0 mi Calm Calm - N/A   Unknown
5:15 AM 63.3 °F - 58.5 °F 84% 30.02 in 7.0 mi Calm Calm - N/A   Unknown
5:35 AM 63.5 °F - 59.0 °F 85% 30.02 in 7.0 mi Calm Calm - N/A   Unknown
5:55 AM 62.8 °F - 59.0 °F 87% 30.02 in 10.0 mi Calm Calm - N/A   Unknown
6:15 AM 64.4 °F - 59.0 °F 83% 30.03 in 10.0 mi Calm Calm - N/A   Unknown
6:35 AM 62.8 °F - 58.6 °F 86% 30.03 in 10.0 mi Calm Calm - N/A   Unknown
6:55 AM 64.0 °F - 59.2 °F 84% 30.03 in 10.0 mi Calm Calm - N/A   Unknown
7:15 AM 64.6 °F - 59.5 °F 84% 30.04 in 10.0 mi Calm Calm - N/A   Unknown
7:35 AM 66.9 °F - 60.1 °F 79% 30.04 in 10.0 mi Calm Calm - N/A   Unknown
7:55 AM 68.7 °F - 59.4 °F 72% 30.04 in 10.0 mi Calm Calm - N/A   Unknown
8:15 AM 70.7 °F - 59.9 °F 69% 30.05 in 7.0 mi Calm Calm - N/A   Unknown
8:35 AM 72.9 °F - 60.6 °F 65% 30.05 in 7.0 mi Calm Calm - N/A   Unknown
8:55 AM 73.8 °F - 59.7 °F 61% 30.06 in 5.0 mi Calm Calm - N/A   Unknown
9:15 AM 74.8 °F - 59.2 °F 58% 30.06 in 10.0 mi SSE 5.8 mph - N/A   Unknown
9:35 AM 76.8 °F - 58.3 °F 53% 30.06 in 10.0 mi Calm Calm - N/A   Unknown
9:55 AM 78.1 °F - 58.1 °F 50% 30.06 in 10.0 mi Calm Calm - N/A   Unknown
10:15 AM 79.0 °F - 58.8 °F 50% 30.06 in 10.0 mi Calm Calm - N/A   Unknown
10:35 AM 81.1 °F 81.4 °F 58.8 °F 46% 30.05 in 10.0 mi Calm Calm - N/A   Unknown
10:55 AM 82.6 °F 82.5 °F 58.6 °F 44% 30.05 in 7.0 mi SSE 5.8 mph - N/A   Unknown
11:15 AM 84.0 °F 83.5 °F 58.3 °F 41% 30.05 in 10.0 mi SE 5.8 mph - N/A   Unknown
11:35 AM 85.5 °F 84.6 °F 58.1 °F 39% 30.05 in 7.0 mi Calm Calm - N/A   Unknown
11:55 AM 86.0 °F 84.7 °F 56.5 °F 36% 30.04 in 10.0 mi Calm Calm - N/A   Unknown
12:15 PM 86.2 °F 85.0 °F 57.2 °F 37% 30.04 in 10.0 mi Calm Calm - N/A   Unknown
12:35 PM 86.9 °F 85.6 °F 57.0 °F 36% 30.03 in 10.0 mi Calm Calm - N/A   Unknown
12:55 PM 86.9 °F 85.3 °F 55.4 °F 34% 30.03 in 10.0 mi Calm Calm - N/A   Unknown
1:15 PM 88.2 °F 85.9 °F 53.4 °F 30% 30.02 in 7.0 mi Calm Calm - N/A   Unknown
1:35 PM 88.9 °F 86.7 °F 53.6 °F 30% 30.01 in 10.0 mi East 5.8 mph - N/A   Unknown
1:55 PM 89.8 °F - 51.4 °F 27% 30.00 in 10.0 mi Calm Calm - N/A   Unknown
2:15 PM 87.1 °F - 52.5 °F 30% 30.00 in 10.0 mi Calm Calm - N/A   Unknown
2:35 PM 87.8 °F - 52.9 °F 30% 29.98 in 10.0 mi ENE 8.1 mph - N/A   Unknown
2:55 PM 90.1 °F - 51.8 °F 27% 29.99 in 10.0 mi NNE 6.9 mph - N/A   Unknown
3:15 PM 89.4 °F - 51.1 °F 27% 29.99 in 10.0 mi Calm Calm - N/A   Unknown
3:35 PM 87.8 °F - 50.4 °F 27% 29.98 in 10.0 mi NE 5.8 mph - N/A   Unknown
3:55 PM 87.1 °F - 50.2 °F 28% 29.97 in 10.0 mi ENE 4.6 mph - N/A   Unknown
4:15 PM 86.0 °F - 50.2 °F 29% 29.99 in 10.0 mi Calm Calm - N/A   Unknown
4:35 PM 84.9 °F 83.6 °F 54.9 °F 36% 29.99 in 10.0 mi Calm Calm - N/A   Unknown
4:55 PM 80.2 °F 80.9 °F 59.5 °F 49% 29.99 in 10.0 mi West 9.2 mph - N/A   Unknown
5:15 PM 80.1 °F 80.9 °F 59.9 °F 50% 29.99 in 10.0 mi WNW 8.1 mph - N/A   Unknown
5:35 PM 80.6 °F 81.2 °F 59.5 °F 49% 29.97 in 10.0 mi Calm Calm - N/A   Unknown
5:55 PM 80.1 °F 81.0 °F 60.3 °F 51% 29.96 in 10.0 mi Calm Calm - N/A   Unknown
6:15 PM 81.5 °F 82.0 °F 60.3 °F 48% 29.97 in 10.0 mi Calm Calm - N/A   Unknown
6:35 PM 84.6 °F 84.2 °F 59.0 °F 42% 29.96 in 10.0 mi Calm Calm - N/A   Unknown
6:55 PM 83.7 °F 83.9 °F 61.0 °F 46% 29.96 in 10.0 mi Calm Calm - N/A   Unknown
7:15 PM 83.5 °F 83.7 °F 60.4 °F 46% 29.96 in 10.0 mi Calm Calm - N/A   Unknown
7:35 PM 82.4 °F 83.4 °F 62.4 °F 51% 29.96 in 10.0 mi Calm Calm - N/A   Unknown
7:55 PM 81.3 °F 82.7 °F 63.5 °F 55% 29.97 in 10.0 mi Calm Calm - N/A   Unknown
8:15 PM 80.4 °F 82.0 °F 63.7 °F 57% 29.97 in 10.0 mi Calm Calm - N/A   Unknown
8:35 PM 79.0 °F - 63.7 °F 59% 29.97 in 10.0 mi Calm Calm - N/A   Unknown
8:55 PM 77.5 °F - 65.3 °F 66% 29.97 in 10.0 mi Calm Calm - N/A   Unknown
9:15 PM 76.8 °F - 64.0 °F 65% 29.97 in 10.0 mi Calm Calm - N/A   Unknown
9:35 PM 73.8 °F - 65.3 °F 75% 29.98 in 10.0 mi Calm Calm - N/A   Unknown
9:55 PM 74.1 °F - 64.0 °F 71% 29.99 in 10.0 mi Calm Calm - N/A   Unknown
10:15 PM 70.9 °F - 67.1 °F 88% 29.99 in 7.0 mi Calm Calm - N/A   Unknown
10:35 PM 72.0 °F - 66.6 °F 83% 30.00 in 10.0 mi Calm Calm - N/A   Unknown
10:55 PM 71.6 °F - 65.5 °F 81% 30.00 in 10.0 mi Calm Calm - N/A   Unknown
11:15 PM 70.2 °F - 65.7 °F 86% 30.00 in 10.0 mi Calm Calm - N/A   Unknown
11:35 PM 69.8 °F - 65.3 °F 86% 30.00 in 7.0 mi Calm Calm - N/A   Unknown
11:55 PM 70.0 °F - 63.7 °F 80% 30.00 in 10.0 mi Calm Calm - N/A   Unknown